Miscellaneous Local Product
Issued by NWS Hastings, NE

Home | Current Version | Previous Version | Graphics & Text | Print | Product List | Glossary On
Versions: 1 2 3 4 5 6 7 8 9 10 11 12 13 14 15 16 17 18 19 20 21 22 23 24 25 26 27 28 29 30 31 32 33 34 35 36 37 38 39 40 41 42 43 44 45 46 47 48 49 50
000
AXUS43 KGID 310702
MISGRI

GID CWA HOURLY WEATHER ROUNDUP
NATIONAL WEATHER SERVICE HASTINGS NE
200 AM CDT MON AUG 31 2015

NOTE: "FAIR" INDICATES FEW OR NO CLOUDS BELOW 12,000 FEET WITH NO
SIGNIFICANT WEATHER AND/OR OBSTRUCTIONS TO VISIBILITY.

...SOUTH CENTRAL NEBRASKA...

CITY           SKY/WX    TMP DP  RH WIND       PRES   REMARKS
GRAND ISLAND   CLEAR     66  64  93 S13       29.96S
HASTINGS       CLEAR     65  63  93 S7        29.96F
KEARNEY        CLEAR     64  61  88 S9        29.95F
ORD            CLEAR     66  63  90 S9        29.92S
YORK           CLOUDY    64  63  94 S6        29.96F
AURORA         CLEAR     66  66 100 S7        29.96S
LEXINGTON      CLEAR     67  64  88 S14       29.95R
HOLDREGE       CLEAR     64  62  92 SE8       29.96F
HEBRON         CLEAR     65  63  92 SE5       29.96S FOG

...NEBRASKA PANHANDLE...

CITY           SKY/WX    TMP DP  RH WIND       PRES   REMARKS
CHADRON        MOCLDY    69  49  48 CALM      29.81R
ALLIANCE       MOCLDY    71  50  47 S8        29.91R
SCOTTSBLUFF    MOCLDY    72  50  45 CALM      29.91F
SIDNEY         PTCLDY    64  48  56 S6        29.98R

...WESTERN AND NORTH CENTRAL NEBRASKA...

CITY           SKY/WX    TMP DP  RH WIND       PRES   REMARKS
VALENTINE      CLEAR     71  57  61 S14       29.84S
AINSWORTH      CLEAR     68  59  72 S17       29.87S
ONEILL         CLEAR     67  65  93 S13       29.90S
BROKEN BOW     CLEAR     66  62  87 S10       29.94S
IMPERIAL       CLEAR     70  45  40 S16       29.93S
NORTH PLATTE   CLEAR     67  56  67 SE9       29.93S
MCCOOK         CLEAR     67  54  63 MISG      29.94S

...EASTERN NEBRASKA...

CITY           SKY/WX    TMP DP  RH WIND       PRES   REMARKS
NORFOLK        PTCLDY    68  64  87 S13       29.93S
TEKAMAH        FOG       61  61 100 SW3       29.95F VSB 1/4
COLUMBUS       PTCLDY   N/A N/A N/A SE5       29.95F
ALBION         PTCLDY    65  62  89 SE8       29.95S
OMAHA EPPLEY   PTCLDY    66  65  96 SE6       29.96F
OFFUTT AFB     CLEAR     63  63 100 E3        29.95F
MILLARD          N/A     66  65  96 E3        29.96S FOG
LINCOLN        CLEAR     66  64  93 S5        29.96F FOG
NEBRASKA CITY  CLEAR     69  68  98 SE3       29.97S
BEATRICE       CLEAR     66  65  96 SE3       29.96F
FALLS CITY     PTCLDY    68  67  96 CALM      29.95F FOG

...NORTHERN KANSAS...

CITY           SKY/WX    TMP DP  RH WIND       PRES   REMARKS
GOODLAND       CLEAR     64  49  57 S14       29.98F
HILL CITY      CLEAR     66  61  84 S8        29.97S
NORTON         SUNNY     61  55  82 SE5       29.95F
PHILLIPSBURG   CLEAR     64  64 100 E5        29.96S
SMITH CENTER   CLEAR     64  63  94 SE9       29.96S
HAYS           CLEAR     64  55  72 SE5       29.97S
RUSSELL        CLEAR     67  62  84 SE10      29.95S
CONCORDIA      CLEAR     64  63  96 SE7       29.96S FOG
SALINA         CLEAR     67  64  90 S5        29.96R
TOPEKA         MOCLDY    68  67  96 CALM      29.96S FOG



USA.gov is the U.S. government's official web portal to all federal, state and local government web resources and services.